Location: Chippewa Lake
(41.0698°N, 81.9010°W)
Time: 17:26:18
(UTC+00:00)

deb Kosmos-886 - Visible Passes

Search period start: 03 December 2021 00:00
Search period end: 13 December 2021 00:00
Orbit: 548 x 1793 km, 65.8° (Epoch: 02 December)

Date Brightness Start Highest point End Pass type
(mag) Time Alt. Az. Time Alt. Az. Time Alt. Az.
03 Dec ? 09:04:38 10° SE 09:09:13 17° ESE 09:13:09 10° ENE visible
03 Dec ? 10:53:10 10° SSW 11:00:59 86° WNW 11:06:39 10° NNE visible
04 Dec ? 08:40:03 10° SE 08:43:13 13° ESE 08:46:05 10° E visible
04 Dec ? 10:27:05 10° SSW 10:34:55 79° ESE 10:40:36 10° NE visible
05 Dec ? 10:01:06 10° SSW 10:08:51 65° ESE 10:14:31 10° NE visible
05 Dec ? 11:55:30 10° WSW 12:00:57 24° NW 12:05:19 10° N visible
06 Dec ? 09:35:12 10° S 09:42:46 53° ESE 09:48:23 10° NE visible
06 Dec ? 11:28:49 10° WSW 11:34:47 29° NW 11:39:29 10° N visible
07 Dec ? 09:15:49 41° SE 09:16:42 43° ESE 09:22:12 10° NE visible
07 Dec ? 11:04:52 20° WSW 11:08:39 35° NW 11:13:36 10° NNE visible
08 Dec ? 08:52:48 28° ENE 08:52:48 28° ENE 08:55:57 10° NE visible
08 Dec ? 10:41:45 41° WNW 10:42:33 42° NW 10:47:41 10° NNE visible
09 Dec ? 08:28:54 13° ENE 08:28:54 13° ENE 08:29:37 10° ENE visible
09 Dec ? 10:17:49 43° NNW 10:17:49 43° NNW 10:21:44 10° NNE visible
10 Dec ? 09:53:29 27° NNE 09:53:29 27° NNE 09:55:45 10° NNE visible
10 Dec ? 11:42:21 12° NW 11:42:57 12° NW 11:44:56 10° NNW visible
11 Dec ? 09:28:52 16° NNE 09:28:52 16° NNE 09:29:45 10° NNE visible
11 Dec ? 11:17:45 14° NNW 11:17:45 14° NNW 11:19:33 10° N visible
12 Dec ? 10:52:57 13° NNW 10:52:57 13° NNW 10:53:56 10° N visible
